This is the latest recevied weather packets stored in our database for station/object KC8YYF. If no packets are shown the sender has not sent any weather packets the latest 10 day(s).
| Time | Temp. | Humidity | Pressure | Rain* | Wind** | Luminosity | Snow |
|---|---|---|---|---|---|---|---|
| 1777977561 | 15° C | 81% | 1008.4 hPa | 0 mm | - | 0 W/m² | - |
| 1777977259 | 15° C | 79% | 1008.3 hPa | 0 mm | - | 0 W/m² | - |
| 1777976955 | 15° C | 78% | 1008.2 hPa | 0 mm | - | 0 W/m² | - |
| 1777976652 | 15° C | 78% | 1008.3 hPa | 0 mm | - | 0 W/m² | - |
| 1777976349 | 15° C | 78% | 1008.2 hPa | 0 mm | - | 0 W/m² | - |
| 1777976043 | 15° C | 79% | 1008.2 hPa | 0 mm | - | 0 W/m² | - |
| 1777975739 | 15° C | 80% | 1008.3 hPa | 0 mm | - | 0 W/m² | - |
| 1777975436 | 15° C | 79% | 1008 hPa | 0 mm | - | 0 W/m² | - |
| 1777975132 | 15° C | 78% | 1008 hPa | 0 mm | - | 0 W/m² | - |
| 1777974829 | 15.56° C | 78% | 1007.9 hPa | 0 mm | - | 0 W/m² | - |
| 1777974525 | 15.56° C | 77% | 1007.9 hPa | 0 mm | - | 0 W/m² | - |
| 1777974222 | 15.56° C | 77% | 1008 hPa | 0 mm | - | 0 W/m² | - |
| 1777973918 | 15.56° C | 78% | 1007.7 hPa | 0 mm | - | 0 W/m² | - |
| 1777973616 | 15° C | 78% | 1008 hPa | 0 mm | - | 0 W/m² | - |
| 1777973312 | 15° C | 78% | 1007.7 hPa | 0 mm | - | 0 W/m² | - |
| 1777973011 | 15° C | 78% | 1007.8 hPa | 0 mm | - | 0 W/m² | - |
| 1777972707 | 15.56° C | 77% | 1007.6 hPa | 0 mm | - | 0 W/m² | - |
| 1777972406 | 15.56° C | 77% | 1007.5 hPa | 0 mm | - | 0 W/m² | - |
| 1777972103 | 15.56° C | 78% | 1007.9 hPa | 0 mm | - | 0 W/m² | - |
| 1777971801 | 15.56° C | 75% | 1007.7 hPa | 0 mm | - | 0 W/m² | - |
| 1777971498 | 16.11° C | 75% | 1007.4 hPa | 0 mm | - | 0 W/m² | - |
| 1777971196 | 16.11° C | 74% | 1007.6 hPa | 0 mm | - | 0 W/m² | - |
| 1777970894 | 16.11° C | 74% | 1007.3 hPa | 0 mm | - | 0 W/m² | - |
| 1777970592 | 16.11° C | 76% | 1007.6 hPa | 0 mm | - | 0 W/m² | - |
| 1777970289 | 16.11° C | 75% | 1007.4 hPa | 0 mm | - | 0 W/m² | - |
* Rain latest hour (hover to see other rain measurements)
** Current wind speed in m/s (hover to see current wind gust speed)